ARIANE 5 DEB (SYLDA), 26109

Orbit data source: Space-Track

ARIANE 5 DEB (SYLDA), 26109 is space debris in HEO originally from a launch on Tue, 21 Mar 2000 UTC launched from the French Guiana (FRGUI). Debris objects in space refer to the collection of defunct objects orbiting the Earth. Examples of debris include non-operational satellites, rocket bodies, and fragments generated from explosions, collisions, or faulty payload assembly.

Loading next visibility...
Identifier
26109, 2000-016C
Orbit
HEO
Country
Flag of FRFR
Related business
Manufacturer
DASA-RI
Mission
Spacecraft
Bus & Motor
SYLDA 5, Unknown motor
Mass
440 kg wet, 440 kg dry
Launch date (UTC)
2000-03-21 (26 years ago)
Launch vehicle
Unknown
Launch site
French Guiana (FRGUI)
Object type
Payload
Rocket body
Debris
Shape & HBR
Cyl, 2.5 m
Radar Cross Section
25.270 m², Large (>1 m²)

Expand to show TLE details & history
Last TLE update: 12 hours ago

TLE from 12 hours ago
0 ARIANE 5 DEB (SYLDA)
1 26109U 00016C   26095.07870496  .00000318  00000-0  42407-2 0  9999
2 26109   7.0934 305.1608 7149408 148.1654 288.0629  2.28287959216071
Epoch: 2026-04-05T01:53Z
TLE epoch observation values (Epoch: 2026-04-05T01:53:20.108Z)
Latitude
0.00001°
Longitude
83.35084°
Altitude
23,995.862 km
Speed
3.144 km/s
True Right ascension
20h 20m 17s
True Declination
0° 00' 00"
Sunlit
Object was in daylight at epoch
Visualization orbit readout
Latitude
Unknown
Longitude
Unknown
Altitude
Unknown
Speed
Unknown
Apparent Right ascension
Unknown
Apparent Declination
Unknown
Sunlit
N/A
Visualization observer readout
Local Sidereal Time
19:30:47
Azimuth
Unknown
Elevation
Unknown
Doppler factor
Unknown
Orbital elements
Apogee altitude
35,413.369 km
Perigee altitude
568.49 km
Semi-major axis
24,369.066 km
Eccentricity
0.71494
Inclination
7.0934°
RAAN
305.1608°
Arg. of periapsis
148.1654°
True anomaly
211.67216°
Mean anomaly
288.0629°
Eccentric anomaly
249.6552°
Mean motion
0.57054 °/min
Orbital period
630.98 mins
BSTAR
0.0042407
Loading maneuver chart data...
Computing Atmospheric mass density...
Loading historical data...
Loading historical data...
Loading historical data...
Loading historical data...
Loading historical data...
Loading historical data...
Loading historical data...
Other satellites on launch #16 in the year 2000 (2000-03-21 UTC)

Documentation

Showing up to 5 results
|